Regional Weather Roundup
Issued by NWS

Home | Current Version | Previous Version | Graphics & Text | Print | Product List | Glossary On
Versions: 1 2 3 4 5 6 7 8 9 10 11 12 13 14 15 16 17 18 19 20 21 22 23 24 25 26 27
000
ASUS45 KCYS 181810
RWRWY

WYOMING REGIONAL WEATHER ROUNDUP
NATIONAL WEATHER SERVICE CHEYENNE WY
1200 PM MDT FRI AUG 18 2017

NOTE:  "FAIR" INDICATES FEW OR NO CLOUDS BELOW 12,000 FEET
WITH NO SIGNIFICANT WEATHER AND/OR OBSTRUCTIONS TO VISIBILITY.

WYZ001-181900-
YELLOWSTONE NATIONAL PARK

CITY           SKY/WX    TMP DP  RH WIND       PRES   REMARKS
LK YELLOWSTONE   N/A     65  43  44 CALM      30.36F
6HR MIN TEMP:  35; 6HR MAX TEMP:  65;

W YELLOWSTONE  NOT AVBL

$$
WYZ002>013-054>058-071-098>099-181900-
NORTHERN WYOMING

CITY           SKY/WX    TMP DP  RH WIND       PRES   REMARKS
JACKSON        FAIR      61  36  39 SW7       30.32F
CODY           FAIR      82  36  19 SW10G20   30.13F
GREYBULL       FAIR      80  38  22 VRB5      30.08F
6HR MIN TEMP:  50; 6HR MAX TEMP:  81;

WORLAND        FAIR      82  45  27 N6        30.09F
6HR MIN TEMP:  48; 6HR MAX TEMP:  82;

SHERIDAN       FAIR      85  36  17 SE5       30.06F
6HR MIN TEMP:  49; 6HR MAX TEMP:  85;

BUFFALO        FAIR      82  31  15 MISG      30.14F
6HR MIN TEMP:  58; 6HR MAX TEMP:  83;

GILLETTE       FAIR      81  34  18 VRB3      30.10F
6HR MIN TEMP:  56; 6HR MAX TEMP:  82;

HULETT         FAIR      79  37  22 NE3       30.11F
NEWCASTLE      FAIR      77  37  24 W6        30.12F

$$
WYZ014>020-022>026-101>103-181900-
CENTRAL WYOMING

CITY           SKY/WX    TMP DP  RH WIND       PRES   REMARKS
BIG PINEY      FAIR      70  36  28 VRB5      30.33F
6HR MIN TEMP:  35; 6HR MAX TEMP:  70;

PINEDALE       FAIR      70  28  21 S7        30.34F
DUBOIS         FAIR      72  30  21 W20G26    30.29S
LANDER           N/A    N/A N/A N/A MISG      30.18F
RIVERTON       FAIR      75  44  33 E7        30.20F
6HR MIN TEMP:  51; 6HR MAX TEMP:  75;

CASPER         FAIR      79  34  19 CALM      30.19F
6HR MIN TEMP:  49; 6HR MAX TEMP:  80;

DOUGLAS        FAIR      81  42  25 NW8       30.17F
6HR MIN TEMP:  47; 6HR MAX TEMP:  82;


$$
WYZ021-027>030-104>119-181900-
SOUTHERN WYOMING

CITY           SKY/WX    TMP DP  RH WIND       PRES   REMARKS
EVANSTON       FAIR      78  34  20 SW16G29   30.33F
6HR MIN TEMP:  50; 6HR MAX TEMP:  78;

KEMMERER         N/A     73  32  21 W13G21    30.35F
FORT BRIDGER   FAIR      80  28  15 W12G25    30.36S
ROCK SPRINGS   FAIR      75  32  20 SW7       30.31F
6HR MIN TEMP:  54; 6HR MAX TEMP:  75;

RAWLINS        FAIR      76  33  21 W14G22    30.31F
6HR MIN TEMP:  43; 6HR MAX TEMP:  76;

SARATOGA       FAIR      73  36  25 NW7       30.33F
LARAMIE        FAIR      72  36  26 VRB5      30.32F
6HR MIN TEMP:  42; 6HR MAX TEMP:  72;

CHEYENNE       FAIR      77  40  26 S5        30.25F
6HR MIN TEMP:  49; 6HR MAX TEMP:  78;

TORRINGTON     FAIR      81  42  25 VRB3      30.12F
6HR MIN TEMP:  51; 6HR MAX TEMP:  82;

PINE BLUFFS    FAIR      77  41  27 S6        30.21F

$$




USA.gov is the U.S. government's official web portal to all federal, state and local government web resources and services.